TimePST,TemperatureF,Dew PointF,Humidity,Sea Level PressureIn,VisibilityMPH,Wind Direction,Wind SpeedMPH,Gust SpeedMPH,PrecipitationIn,Events,Conditions,WindDirDegrees,DateUTC
12:15 AM,37.4,28.4,70,30.19,10.0,SE,10.4,-,N/A,,Overcast,140,2013-01-05 08:15:00
12:35 AM,37.4,28.4,70,30.19,10.0,SSE,6.9,-,N/A,,Overcast,150,2013-01-05 08:35:00
12:55 AM,37.4,28.4,70,30.20,10.0,SE,5.8,-,N/A,,Overcast,140,2013-01-05 08:55:00
1:15 AM,35.6,28.4,75,30.20,10.0,SSE,8.1,-,N/A,,Overcast,150,2013-01-05 09:15:00
1:35 AM,35.6,28.4,75,30.20,10.0,SE,8.1,-,N/A,,Overcast,140,2013-01-05 09:35:00
1:55 AM,35.6,28.4,75,30.20,10.0,SE,8.1,-,N/A,,Overcast,140,2013-01-05 09:55:00
2:15 AM,35.6,28.4,75,30.20,10.0,SSE,6.9,-,N/A,,Mostly Cloudy,150,2013-01-05 10:15:00
2:35 AM,35.6,28.4,75,30.20,10.0,SSE,6.9,-,N/A,,Overcast,150,2013-01-05 10:35:00
2:55 AM,37.4,28.4,70,30.20,10.0,SSE,6.9,-,N/A,,Overcast,150,2013-01-05 10:55:00
3:15 AM,35.6,28.4,75,30.21,10.0,SE,5.8,-,N/A,,Overcast,140,2013-01-05 11:15:00
3:35 AM,35.6,28.4,75,30.20,10.0,SE,5.8,-,N/A,,Overcast,140,2013-01-05 11:35:00
3:55 AM,35.6,28.4,75,30.20,10.0,SSE,4.6,-,N/A,,Mostly Cloudy,150,2013-01-05 11:55:00
4:15 AM,35.6,26.6,70,30.20,10.0,SSE,5.8,-,N/A,,Overcast,160,2013-01-05 12:15:00
4:35 AM,35.6,26.6,70,30.19,10.0,SSE,8.1,-,N/A,,Overcast,150,2013-01-05 12:35:00
4:55 AM,35.6,26.6,70,30.19,10.0,SSE,8.1,-,N/A,,Overcast,150,2013-01-05 12:55:00
5:15 AM,35.6,26.6,70,30.19,10.0,SE,6.9,-,N/A,,Overcast,140,2013-01-05 13:15:00
5:35 AM,35.6,26.6,70,30.19,10.0,SE,8.1,-,N/A,,Overcast,140,2013-01-05 13:35:00
5:55 AM,35.6,26.6,70,30.20,10.0,SSE,6.9,-,N/A,,Overcast,150,2013-01-05 13:55:00
6:15 AM,35.6,26.6,70,30.20,10.0,SE,8.1,-,N/A,,Overcast,140,2013-01-05 14:15:00
6:35 AM,35.6,26.6,70,30.21,9.0,SSE,8.1,-,N/A,,Overcast,150,2013-01-05 14:35:00
6:55 AM,35.6,26.6,70,30.20,9.0,SE,8.1,-,N/A,,Overcast,140,2013-01-05 14:55:00
7:15 AM,35.6,26.6,70,30.20,8.0,SSE,6.9,-,N/A,,Overcast,150,2013-01-05 15:15:00
7:55 AM,37.4,26.6,65,30.19,8.0,SE,8.1,-,N/A,,Overcast,140,2013-01-05 15:55:00
8:15 AM,37.4,26.6,65,30.21,7.0,South,8.1,-,N/A,,Overcast,170,2013-01-05 16:15:00
8:55 AM,37.4,26.6,65,30.22,8.0,SE,8.1,-,N/A,,Overcast,140,2013-01-05 16:55:00
9:15 AM,37.4,26.6,65,30.23,8.0,SE,6.9,-,N/A,,Overcast,130,2013-01-05 17:15:00
9:35 AM,37.4,26.6,65,30.22,8.0,ESE,9.2,-,N/A,,Overcast,120,2013-01-05 17:35:00
9:55 AM,37.4,26.6,65,30.21,10.0,SE,10.4,-,N/A,,Overcast,140,2013-01-05 17:55:00
10:15 AM,37.4,28.4,70,30.22,8.0,SSE,9.2,-,N/A,,Overcast,160,2013-01-05 18:15:00
10:35 AM,37.4,28.4,70,30.21,8.0,South,5.8,-,N/A,,Overcast,170,2013-01-05 18:35:00
10:55 AM,37.4,28.4,70,30.22,9.0,SSE,8.1,-,N/A,,Overcast,160,2013-01-05 18:55:00
11:15 AM,37.4,28.4,70,30.22,8.0,SE,8.1,-,N/A,,Overcast,130,2013-01-05 19:15:00
11:35 AM,37.4,28.4,70,30.22,8.0,SE,6.9,-,N/A,,Mostly Cloudy,130,2013-01-05 19:35:00
11:55 AM,39.2,28.4,65,30.21,9.0,SSE,9.2,-,N/A,,Overcast,150,2013-01-05 19:55:00
12:15 PM,39.2,28.4,65,30.20,10.0,SSE,6.9,-,N/A,,Mostly Cloudy,150,2013-01-05 20:15:00
12:35 PM,39.2,28.4,65,30.19,10.0,SSE,9.2,-,N/A,,Overcast,150,2013-01-05 20:35:00
12:55 PM,39.2,30.2,70,30.17,10.0,SSE,8.1,-,N/A,,Mostly Cloudy,150,2013-01-05 20:55:00
1:15 PM,39.2,30.2,70,30.17,10.0,SSE,9.2,-,N/A,,Mostly Cloudy,150,2013-01-05 21:15:00
1:35 PM,39.2,30.2,70,30.18,9.0,SSE,5.8,-,N/A,,Partly Cloudy,160,2013-01-05 21:35:00
1:55 PM,39.2,30.2,70,30.18,10.0,SSE,8.1,-,N/A,,Scattered Clouds,150,2013-01-05 21:55:00
2:15 PM,39.2,30.2,70,30.18,10.0,SSE,8.1,-,N/A,,Mostly Cloudy,150,2013-01-05 22:15:00
3:15 PM,39.2,30.2,70,30.17,10.0,SSE,5.8,-,N/A,,Mostly Cloudy,150,2013-01-05 23:15:00
3:35 PM,39.2,30.2,70,30.17,10.0,SSE,12.7,17.3,N/A,,Mostly Cloudy,150,2013-01-05 23:35:00
3:55 PM,39.2,30.2,70,30.17,10.0,SSE,9.2,-,N/A,,Overcast,150,2013-01-05 23:55:00
4:15 PM,39.2,30.2,70,30.17,10.0,SSE,10.4,-,N/A,,Overcast,150,2013-01-06 00:15:00
4:35 PM,39.2,30.2,70,30.17,10.0,SSE,10.4,-,N/A,,Overcast,150,2013-01-06 00:35:00
4:55 PM,37.4,30.2,75,30.17,10.0,SSE,13.8,20.7,N/A,,Mostly Cloudy,150,2013-01-06 00:55:00
5:15 PM,37.4,30.2,75,30.17,10.0,SE,9.2,-,N/A,,Scattered Clouds,140,2013-01-06 01:15:00
5:35 PM,37.4,28.4,70,30.17,10.0,SE,10.4,17.3,N/A,,Mostly Cloudy,130,2013-01-06 01:35:00
5:55 PM,37.4,28.4,70,30.18,10.0,SE,10.4,16.1,N/A,,Overcast,140,2013-01-06 01:55:00
6:15 PM,37.4,28.4,70,30.18,10.0,SSE,8.1,-,N/A,,Overcast,150,2013-01-06 02:15:00
6:35 PM,37.4,28.4,70,30.18,10.0,SSE,8.1,-,N/A,,Overcast,150,2013-01-06 02:35:00
6:55 PM,37.4,28.4,70,30.18,10.0,SE,8.1,-,N/A,,Overcast,140,2013-01-06 02:55:00
7:15 PM,37.4,28.4,70,30.19,10.0,SE,8.1,-,N/A,,Overcast,140,2013-01-06 03:15:00
7:35 PM,37.4,28.4,70,30.19,10.0,SSE,9.2,-,N/A,,Overcast,150,2013-01-06 03:35:00
7:55 PM,37.4,28.4,70,30.19,10.0,SE,5.8,-,N/A,,Overcast,130,2013-01-06 03:55:00
8:15 PM,37.4,28.4,70,30.18,10.0,ESE,5.8,-,N/A,,Overcast,120,2013-01-06 04:15:00
8:35 PM,37.4,28.4,70,30.19,10.0,SSE,5.8,-,N/A,,Overcast,150,2013-01-06 04:35:00
8:55 PM,37.4,28.4,70,30.18,10.0,SE,8.1,-,N/A,,Overcast,140,2013-01-06 04:55:00
9:15 PM,37.4,28.4,70,30.19,10.0,SE,10.4,-,N/A,,Overcast,140,2013-01-06 05:15:00
9:35 PM,37.4,28.4,70,30.19,10.0,SSE,9.2,-,N/A,,Overcast,150,2013-01-06 05:35:00
9:55 PM,37.4,28.4,70,30.19,10.0,SSE,9.2,-,N/A,,Overcast,150,2013-01-06 05:55:00
10:15 PM,37.4,28.4,70,30.19,10.0,SSE,11.5,16.1,N/A,,Overcast,150,2013-01-06 06:15:00
10:35 PM,37.4,28.4,70,30.20,10.0,SSE,10.4,-,N/A,,Overcast,150,2013-01-06 06:35:00
10:55 PM,37.4,28.4,70,30.20,10.0,SE,10.4,18.4,N/A,,Overcast,140,2013-01-06 06:55:00
11:15 PM,37.4,28.4,70,30.20,10.0,SSE,10.4,-,N/A,,Overcast,150,2013-01-06 07:15:00
11:35 PM,37.4,30.2,75,30.20,10.0,SE,10.4,-,N/A,,Overcast,140,2013-01-06 07:35:00
11:55 PM,37.4,28.4,70,30.20,10.0,SSE,8.1,-,N/A,,Overcast,150,2013-01-06 07:55:00